Regional Weather Roundup
Issued by NWS

Current Version | Previous Version | Text Only | Print | Product List | Glossary On
Versions: 1 2 3 4 5 6 7 8 9 10 11 12 13 14 15 16 17 18 19 20 21 22 23 24 25 26 27 28 29 30 31 32 33 34 35 36 37 38 39 40 41 42 43 44 45 46 47 48 49 50
000
ASUS43 KLOT 250909
RWRIL

ILLINOIS REGIONAL WEATHER ROUNDUP
NATIONAL WEATHER SERVICE CHICAGO/ROMEOVILLE IL
400 AM CDT THU MAY 25 2017

NOTE: "FAIR" INDICATES FEW OR NO CLOUDS BELOW 12,000 FEET WITH NO
SIGNIFICANT WEATHER AND/OR OBSTRUCTIONS TO VISIBILITY.

* THESE STATIONS ARE NOT UNDER NWS QUALITY CONTROL. THEY ALSO MAY NOT
  REPORT WEATHER SUCH AS PRECIPITATION OR FOG.

ILZ001-002-007-009-015-016-024-251000-
NORTHWEST ILLINOIS

CITY           SKY/WX    TMP DP  RH WIND       PRES   REMARKS
MOLINE         MOCLDY    53  49  86 N6        29.64S
STERLING*      CLOUDY    54  51  90 N10       29.62S
SAVANNA*       CLOUDY    54  49  85 N9        29.64R
$$

ILZ003-004-008-010-011-017-018-251000-
NORTH CENTRAL ILLINOIS

CITY           SKY/WX    TMP DP  RH WIND       PRES   REMARKS
ROCKFORD       CLOUDY    55  51  86 N9        29.62S
FREEPORT*      CLOUDY    52  50  90 N6        29.64S
ROCHELLE*      CLOUDY    53  51  93 N10       29.60S
DE KALB*       CLOUDY    53  51  94 N12       29.59S
PERU*          CLOUDY    53  49  86 N15       29.60R
$$

ILZ005-006-012>014-019>023-251000-
NORTHEAST ILLINOIS

CITY           SKY/WX    TMP DP  RH WIND       PRES   REMARKS
CHICAGO-OHARE  CLOUDY    55  50  83 N12       29.55R
CHICAGO-MIDWAY CLOUDY    55  51  86 N14       29.53S
AURORA         CLOUDY    54  52  93 N14       29.57R
LANSING*       CLOUDY    54  52  94 N8        29.52S
JOLIET*        PTCLDY    55  53  92 NW6       29.55R
WAUKEGAN       CLOUDY    53  51  93 N8        29.56R
DUPAGE AIRPORT MOCLDY    53  52  96 N15       29.55R
KANKAKEE*      CLOUDY    55  52  91 NW10G16   29.53R
WHEELING       CLOUDY    54  52  93 N10       29.57R
MORRIS*        CLOUDY    54  51  90 CALM      29.54R
ROMEOVILLE*    PTCLDY    53  52  99 N10       29.55R
NORTHERLY ISL    N/A     54  49  83 N18         N/A
$$

LMZ740>746-251000-
SOUTHERN LAKE MICHIGAN

STATION/POSITION SKY/WX   TEMP    WIND        PRES    VSBY  WAVE
                          AIR SEA DIR/SP/G                  HT/PER
                          (F)     (DEG/KT/KT) (MB)    (MI)  (FT/S)
SOUTHERN BUOY              47 45   10/ 14/ 14 1000.1          3/ 6
WILMETTE HARBOR            49 52                N/A           5/ 5
HARRISON CRIB              51     340/ 25/ 27   N/A
BURNHAM HARBOR             54     340/ 11/ 21   N/A
CALUMET HARBOR             52     330/ 12/ 19  999.5S
BURNS HARBOR               50     340/ 18/ 22  999.3S
MICHIGAN CITY              50     330/ 21/ 22   N/A
MICHIGAN CITY 6N           49 52  350/ 17/ 21   N/A           6/ 6
ST. JOSEPH                 55 56   40/ 12/ 16  998.4          4/ 6
$$

ILZ025>027-034>036-040-047-049-050-058-095>099-251000-
WEST-CENTRAL ILLINOIS

CITY           SKY/WX    TMP DP  RH WIND       PRES   REMARKS
QUINCY         CLEAR     50  49  96 NW7       29.65R
GALESBURG*     CLEAR     49  49  99 NW6       29.63F
MACOMB*        CLEAR     50  49  97 NW6       29.66S
JACKSONVILLE*  CLEAR     52  51  95 W6        29.63R
PITTSFIELD*    CLEAR     53  51  95 NW5       29.66R
$$

ILZ028>032-037-038-041>044-048-051>054-059>061-251000-
CENTRAL ILLINOIS

CITY           SKY/WX    TMP DP  RH WIND       PRES   REMARKS
PONTIAC        CLOUDY    54  54  99 NW16      29.57S
BLOOMINGTON    CLOUDY    54  51  90 N18G24    29.58S
DECATUR        CLOUDY    57  53  86 NW13G25   29.56S
PEORIA         CLEAR     54  51  90 N5        29.61R
LACON*         CLOUDY    54  51  89 N10G17    29.60R
LINCOLN*       PTCLDY    55  54  97 NW5       29.59S
SPRINGFIELD    PTCLDY    56  53  90 NW12      29.61R
TAYLORVILLE    CLOUDY    55  53  91 NW12      29.59S
$$

ILZ033-039-045-046-055>057-062-063-251000-
EAST-CENTRAL ILLINOIS

CITY           SKY/WX    TMP DP  RH WIND       PRES   REMARKS
CHAMPAIGN      CLOUDY    56  52  86 NW16      29.53S
RANTOUL*       CLOUDY    56  54  92 NW13      29.52S
MATTOON        CLOUDY    56  55  97 NW14      29.53R
PARIS*         CLOUDY    55  54  96 NW9G18    29.51S
$$

ILZ079-100>102-251000-
SOUTHWEST ILLINOIS

CITY           SKY/WX    TMP DP  RH WIND       PRES   REMARKS
ALTON          CLOUDY    54  51  90 NW7       29.64R
BELLEVILLE     MOCLDY    55  52  90 W8        29.64R
CAHOKIA*       CLEAR     56  51  84 W6        29.64R
SPARTA*        CLEAR     53  51  93 W5        29.64R
$$

ILZ064>066-069>071-074>076-080>082-084>086-088>090-092>094-251000-
SOUTH-CENTRAL ILLINOIS

CITY           SKY/WX    TMP DP  RH WIND       PRES   REMARKS
CARBONDALE     MOCLDY    55  52  89 W8        29.62R
CAIRO*         CLEAR     55  50  85 W8        29.64R
EFFINGHAM*     CLOUDY    58  57  96 W12G17    29.57R
MARION         CLEAR     55  55 100 W3        29.62R
MT. VERNON       N/A     56  54  93 VRB5      29.59R
CENTRALIA*     CLOUDY    57  55  94 W9        29.59S
SALEM*         CLOUDY    58  54  88 W8G16     29.58S
METROPOLIS*    CLEAR     57  51  82 W6        29.62R
$$

ILZ067-068-072-073-078-083-087-091-251000-
SOUTHEAST ILLINOIS

CITY           SKY/WX    TMP DP  RH WIND       PRES   REMARKS
LAWRENCEVILLE  CLOUDY    59  56  89 NW13      29.51S
FLORA*         CLOUDY    59  56  88 W13       29.56S
FAIRFIELD*     CLOUDY    57  56  95 W5        29.56R
HARRISBURG*    MOCLDY    57  55  92 W10       29.59R
ROBINSON*      CLOUDY    57  55  91 NW12      29.51S
CARMI*         MOCLDY    58  56  94 W9        29.56R
$$

ABBREVIATIONS USED IN REMARKS
   TC - TEMPERATURE IN CELSIUS
  WCI - WIND CHILL INDEX
   HX - HEAT INDEX
  VSB - VISIBILITY
$$





USA.gov is the U.S. government's official web portal to all federal, state and local government web resources and services.